Location: ???? ??
(36.0534°N, 43.5630°E)
Time: 02:11:42
(UTC+00:00)

GEOS 3 Rocket - Pass Details

Date: 18 September 2019
Orbit: 790 x 829 km, 115.0° (Epoch: 17 October)

Event Time Altitude Azimuth Distance (km) Brightness Sun altitude
Exits shadow 16:03:09 14° 119° (ESE) 2,084 5.2 -11.6°
Maximum altitude 16:07:17 46° 51° (NE) 1,059 4.0 -12.4°
Drops below altitude 10° 16:12:08 10° 339° (NNW) 2,361 6.5 -13.4°
Sets 16:14:29 0° 334° (NNW) 3,296 7.4 -13.9°
